Home   Weather   Bertoua   Past weeks
Flag for Cameroon

Past Weather in Bertoua, Cameroon — Yesterday and Last 2 Weeks

Now
70 °F

Partly sunny.


Feels Like: 70 °F
Forecast: 81 / 67 °F
Wind: 7 mph from Southwest

Location: Yaounde Airport

Current Time: Aug 19, 2019 at 8:53:30 am

Latest Report: Aug 19, 2019 at 8:00 am


Visibility: 4 mi

Pressure: 30.07 "Hg (27.83 "Hg at 665m altitude)

Humidity: 94%

Dew Point: 68 °F

Location of BertouaLocation

Past Weather in Bertoua — Graph

°F

Bertoua Temperature Yesterday

Maximum temperature yesterday: 79 °F (at 1:00 pm)
Minimum temperature yesterday: 70 °F (at 3:00 am)
Average temperature yesterday: 73 °F

High & Low Weather Summary for the Past Weeks

 TemperatureHumidityPressure
High86 °F (Aug 17, 4:00 pm)100% (Aug 5, 12:00 am)30.21 "Hg (Aug 5, 12:00 am)
Low68 °F (Aug 6, 3:00 am)62% (Aug 15, 2:00 pm)29.95 "Hg (Aug 17, 4:00 pm)
Average73 °F89%30.08 "Hg
* Reported Aug 4 7:00 am — Aug 19 7:00 am, Bertoua. Weather by CustomWeather, © 2019

Note: Actual official high and low records may vary slightly from our data, if they occured in-between our weather recording intervals... More about our weather records

Advertising

Bertoua Weather History for the Previous 24 Hours

Scroll right to see more
 ConditionsComfort  
Time TempWeatherWind HumidityBarometerVisibility
7:00 am
Mon, Aug 19
70 °FPartly sunny.2 mph94%30.04 "HgN/A
6:00 am68 °FPassing clouds.2 mph100%30.04 "Hg4 mi
5:00 am68 °FPassing clouds.3 mph100%30.04 "HgN/A
4:00 am68 °FPassing clouds.2 mph100%30.04 "HgN/A
3:00 am68 °FPassing clouds.5 mph100%30.04 "Hg4 mi
2:00 am68 °FPassing clouds.5 mph100%30.04 "Hg4 mi
1:00 am68 °FPassing clouds.3 mph100%30.04 "Hg4 mi
12:00 am70 °FPassing clouds.6 mph94%30.07 "Hg4 mi
11:00 pm
Sun, Aug 18
70 °FPassing clouds.3 mph94%30.01 "Hg4 mi
10:00 pm70 °FPassing clouds.5 mph94%N/A5 mi
9:00 pm72 °FPassing clouds.6 mph94%30.04 "Hg5 mi
8:00 pm72 °FPassing clouds.6 mph94%30.01 "Hg5 mi
7:00 pm72 °FPassing clouds.5 mph94%29.98 "Hg5 mi
6:00 pm72 °FThunderstorms. Passing clouds.6 mph94%29.98 "Hg5 mi
5:00 pm73 °FThunderstorms. Scattered clouds.8 mph89%29.98 "Hg4 mi
4:00 pm73 °FThunderstorms. Scattered clouds.8 mph89%29.98 "Hg4 mi
3:00 pm79 °FThunderstorms. Scattered clouds.6 mph74%29.98 "HgN/A
2:00 pm79 °FPartly sunny.3 mph74%30.01 "HgN/A
1:00 pm79 °FPartly sunny.6 mph74%30.04 "HgN/A
12:00 pm77 °FPartly sunny.6 mph79%30.07 "HgN/A
11:00 am75 °FPartly sunny.6 mph83%30.09 "HgN/A
10:00 am75 °FPartly sunny.6 mph83%30.07 "HgN/A
9:00 am73 °FPartly sunny.7 mph89%30.07 "HgN/A
8:00 am70 °FBroken clouds.5 mph100%30.07 "HgN/A
Weather by CustomWeather, © 2019

See weather overview